Regional Weather Roundup
Issued by NWS

Home | Current Version | Previous Version | Graphics & Text | Print | Product List | Glossary On
Versions: 1 2 3 4 5 6 7 8 9 10 11 12 13 14 15 16 17 18 19 20 21 22 23 24 25 26 27 28 29 30 31 32 33 34 35 36 37 38 39 40 41 42 43 44 45 46 47 48 49 50
463
ASUS44 KLIX 290001
RWRLA
LOUISIANA WEATHER ROUNDUP
NATIONAL WEATHER SERVICE NEW ORLEANS LA
600 PM CST WED JAN 28 2015

NOTE: "FAIR" INDICATES FEW OR NO CLOUDS BELOW 12,000 FEET WITH NO
      SIGNIFICANT WEATHER AND/OR OBSTRUCTIONS TO VISIBILITY.
      SKY/WX - SKY CONDITION AND SIGNIFICANT WEATHER.
      TMP - AIR TEMPERATURE.    DP   - DEWPOINT TEMPERATURE.
      RH  - RELATIVE HUMIDITY.  PRES - PRESSURE.
      HX  - HEAT INDEX.         WCI  - WIND CHILL INDEX.

*  THESE STATIONS ARE NOT NWS OR FAA STATIONS AND ARE NOT UNDER
   NWS QUALITY CONTROL.

LAZ040-048-061>063-065-066-069-290100-
SOUTHEAST LOUISIANA

CITY           SKY/WX    TMP DP  RH WIND       PRES   REMARKS
N.O. AUDUBON     N/A     58  47  67 MISG        N/A
6HR MIN TEMP:  58; 6HR MAX TEMP:  67;

N.O. INTL ARPT PTCLDY    60  43  53 S9        30.24R
6HR MIN TEMP:  59; 6HR MAX TEMP:  68;

N.O. LAKEFRONT CLEAR     59  43  55 SE7       30.25R
6HR MIN TEMP:  59; 6HR MAX TEMP:  65;

N.O. DOWNTOWN* NOT AVBL
SLIDELL        CLEAR     52  42  69 CALM      30.24R
6HR MIN TEMP:  52; 6HR MAX TEMP:  68;

BATON ROUGE    PTCLDY    61  31  32 SE6       30.21S
6HR MIN TEMP:  61; 6HR MAX TEMP:  71;

BOOTHVILLE     CLEAR     55  47  74 CALM      30.25S
6HR MIN TEMP:  55; 6HR MAX TEMP:  60;

BELLE CHASSE   PTCLDY    57  41  55 SE5       30.25R
6HR MIN TEMP:  57; 6HR MAX TEMP:  66;

BOGALUSA*        N/A     61  42  48 S7        30.24R
6HR MIN TEMP:  61; 6HR MAX TEMP:  72;

GALLIANO*      NOT AVBL
NEW ROADS*     NOT AVBL
GONZALES*      NOT AVBL
HAMMOND*       NOT AVBL
HOUMA*         CLEAR     55  45  67 SE9       30.24R
PORT FOURCHON* CLEAR     61  52  72 E7        30.27R

$$

LAZ041-044-053-054-290100-
SOUTHWEST LOUISIANA

CITY           SKY/WX    TMP DP  RH WIND       PRES   REMARKS
LAKE CHARLES   CLEAR     59  43  55 S10       30.16F
6HR MIN TEMP:  58; 6HR MAX TEMP:  72;

LAFAYETTE      CLEAR     61  46  57 S6        30.21S
6HR MIN TEMP:  61; 6HR MAX TEMP:  71;

PATTERSON      PTCLDY    61  45  55 S7        30.24R
6HR MIN TEMP:  61; 6HR MAX TEMP:  70;

SALT POINT       N/A     56  48  74 SE5       30.22S
6HR MIN TEMP:  56; 6HR MAX TEMP:  66;

NEW IBERIA     CLEAR     59  46  62 S7        30.22S
6HR MIN TEMP:  59; 6HR MAX TEMP:  72;

CHENAULT AIRPK CLEAR     59  43  55 SE10      30.17F

$$

LAZ027-028-290100-
CENTRAL LOUISIANA

CITY           SKY/WX    TMP DP  RH WIND       PRES   REMARKS
FORT POLK      PTCLDY    66  42  42 SE14      30.11F
6HR MIN TEMP:  66; 6HR MAX TEMP:  73;

ALEXANDRIA INT CLEAR     60  44  55 S8        30.12F
6HR MIN TEMP:  60; 6HR MAX TEMP:  73;

ALEXANDRIA     CLEAR     67  42  40 S6        30.14F
6HR MIN TEMP:  67; 6HR MAX TEMP:  74;


$$

LAZ001-002-290100-
NORTHWEST LOUISIANA

CITY           SKY/WX    TMP DP  RH WIND       PRES   REMARKS
SHREVEPORT     CLOUDY    65  43  44 S9        30.07S
6HR MIN TEMP:  65; 6HR MAX TEMP:  76;

BARKSDALE AFB  MOCLDY    66  42  41 S10       30.08R
6HR MIN TEMP:  65; 6HR MAX TEMP:  76;

DTN SHREVEPORT CLOUDY    67  41  38 S10       30.08R
6HR MIN TEMP:  67; 6HR MAX TEMP:  74;


$$

LAZ014-016-290100-
NORTHEAST LOUISIANA

CITY           SKY/WX    TMP DP  RH WIND       PRES   REMARKS
MONROE         PTCLDY    66  42  41 S8        30.11F
6HR MIN TEMP:  62; 6HR MAX TEMP:  72;

TALLULAH       CLEAR     60  43  53 S8        30.15F
6HR MIN TEMP:  60; 6HR MAX TEMP:  71;


$$




USA.gov is the U.S. government's official web portal to all federal, state and local government web resources and services.